Wetbulb
45.78 45.81 46.35 46.15 46.27 47.14 46.11 46.89 43.39 46.00 46.65 50.10 52.20 53.50 54.99 56.48 56.54 56.86 57.15 57.50 57.13 57.09 57.87 59.39 59.06 59.70 59.64 59.81 60.82 61.67 60.57 58.24 57.59 57.66 56.84 55.64 54.94 52.80 51.55 51.31 50.67 49.95 49.13 48.96
43.10 45.64 45.90 44.71 46.78 47.78 47.78 47.81 47.52 47.78 46.89 52.72 54.25 55.23 54.59 54.98 55.66 55.93 56.73 57.52 57.99 58.74 59.18 59.06 59.20 58.15 58.03 58.70 59.92 59.98 58.53 57.40 57.23 56.33 55.31 54.30 51.48 50.41 50.01 50.36 49.07 48.62 47.91 47.88
38.58 44.36 44.41 40.08 45.28 46.91 47.81 49.05 48.61 44.69 48.70 53.26 52.95 53.65 54.37 55.01 56.07 56.14 56.91 57.50 57.58 58.28 58.76 58.88 58.03 58.21 57.62 57.83 59.21 58.99 57.18 56.24 55.08 54.71 53.95 50.42 49.76 49.04 48.62 47.66 47.98 47.08 47.24 47.38
39.31 41.27 32.21 44.21 50.12 49.91 48.59 49.89 50.91 50.87 52.05 53.03 53.12 54.58 55.72 56.64 56.03 56.28 56.98 57.46 57.77 58.06 58.45 58.65 58.47 57.99 57.81 57.39 57.06 56.66 55.03 54.45 53.87 52.84 50.02 49.03 48.65 47.68 46.79 47.10 47.06 47.00 46.57 45.72
35.31 35.46 40.19 43.90 47.08 47.36 47.12 47.08 52.28 51.42 52.65 53.85 55.09 55.40 54.90 57.16 57.37 57.14 57.59 58.18 57.98 58.27 58.15 57.58 57.21 57.18 56.17 55.36 55.62 54.60 53.78 53.49 52.07 49.78 48.13 48.07 47.42 46.35 46.45 46.24 46.44 45.83 45.73 44.76
33.28 31.83 32.05 43.80 49.63 52.74 50.84 41.03 51.35 52.08 51.84 52.44 53.98 48.30 51.70 57.99 58.39 58.04 58.55 58.07 56.99 57.19 56.15 54.98 55.04 55.21 53.98 53.71 53.74 52.52 52.59 52.14 50.23 49.05 48.21 47.83 47.37 46.11 46.95 46.66 46.24 45.45 44.18 44.07
36.77 33.89 38.68 47.26 50.28 52.28 40.78 44.74 53.93 54.25 54.42 53.93 52.02 54.11 56.85 57.62 57.11 56.54 55.90 55.45 54.61 53.73 53.16 53.46 53.97 53.66 51.81 51.01 50.65 51.06 50.65 49.65 48.98 48.83 48.28 47.48 46.63 46.57 46.27 45.63 44.47 42.75 42.53 42.38
37.81 34.71 32.53 49.67 49.40 44.46 49.02 53.21 53.51 54.06 54.79 53.35 55.41 55.73 55.85 55.84 55.80 54.09 52.69 51.88 51.55 51.85 51.68 52.48 52.54 51.54 49.96 47.53 48.71 49.17 48.44 48.18 47.55 47.22 45.94 46.44 46.06 45.91 45.77 44.44 42.57 40.78 39.39 38.39
41.76 41.09 49.07 52.33 52.25 54.40 53.93 50.97 51.36 51.57 52.22 52.19 52.59 53.45 52.73 53.88 53.96 52.76 52.05 51.63 51.30 50.76 51.10 50.82 50.84 50.02 47.66 46.13 47.05 46.36 46.35 44.97 45.28 44.52 44.38 44.85 44.17 43.37 42.28 43.09 40.13 38.71 36.34 35.98
43.87 47.81 49.63 51.54 50.21 49.26 48.88 49.40 50.88 50.97 50.06 49.33 47.89 49.19 50.09 49.66 50.78 50.60 50.55 50.18 50.53 49.62 47.59 47.83 48.90 48.66 47.15 46.29 46.71 45.99 44.02 43.72 43.63 42.47 42.13 41.45 41.18 40.08 39.19 38.70 37.61 35.62 35.07 34.71
43.09 46.62 45.02 47.16 45.12 46.46 46.15 47.24 47.90 48.06 47.75 47.51 47.81 46.82 47.20 46.80 47.66 48.68 48.25 49.02 48.49 47.60 46.05 45.79 46.53 46.11 46.28 46.49 46.22 45.16 44.14 44.25 43.75 43.79 42.47 41.76 39.31 37.99 36.34 35.27 37.43 36.36 35.80 35.07
36.22 42.57 41.26 41.64 44.93 46.24 44.91 45.58 46.50 46.34 46.36 46.61 47.39 46.96 46.99 45.71 46.86 47.55 47.72 48.16 47.37 45.70 46.00 45.09 45.30 44.33 43.92 44.29 44.57 43.18 41.46 41.65 40.89 41.08 40.08 39.83 38.42 37.07 36.18 34.89 35.57 36.28 36.47 34.30
41.57 45.14 46.41 47.22 47.85 47.66 46.60 46.50 47.11 46.60 46.95 46.14 47.06 47.16 46.70 46.13 46.21 44.39 46.33 45.50 44.11 43.97 43.04 43.49 42.96 42.12 41.56 41.91 42.57 41.11 40.20 39.78 38.36 37.44 36.80 36.93 36.96 35.24 34.73 34.33 35.46 35.50 35.25 34.95
42.71 42.59 41.38 44.08 44.00 47.36 47.20 46.27 46.65 47.31 46.40 46.26 46.35 46.36 44.32 43.92 44.34 44.08 42.86 43.28 42.83 40.99 40.62 40.33 39.47 38.06 39.78 40.40 38.25 35.48 36.82 32.86 35.80 36.74 36.52 35.63 35.27 34.73 34.18 33.46 32.90 33.06 33.92 34.61
42.17 43.59 43.77 44.78 45.20 45.63 45.54 44.78 43.95 43.46 44.31 43.79 43.77 42.16 42.22 41.78 40.96 40.00 40.18 40.82 40.46 40.03 40.05 40.19 38.95 38.29 39.14 38.56 37.95 38.05 37.94 36.76 36.01 36.15 35.40 35.06 34.35 34.53 34.51 33.97 33.77 33.61 33.62 32.51
42.67 42.68 42.89 42.63 42.69 42.77 43.31 43.06 42.28 42.57 43.26 41.52 39.97 39.87 40.90 40.26 38.63 38.02 38.05 37.95 37.38 35.80 35.42 32.93 33.85 36.24 36.93 36.89 36.37 37.26 36.59 33.47 33.50 34.79 34.42 33.99 33.43 33.61 33.61 33.61 33.79 33.71 33.97 34.27
39.85 39.72 40.95 41.19 41.82 42.12 42.16 42.59 42.96 41.55 39.75 38.35 37.62 38.08 37.82 36.80 36.27 34.58 34.72 33.22 32.27 31.96 32.16 32.35 32.01 33.46 33.46 34.61 35.75 36.06 35.75 34.57 33.08 34.13 33.44 33.40 32.88 32.88 33.06 32.70 32.48 32.46 33.38 33.25
41.46 41.34 41.62 41.52 41.34 40.94 39.08 38.36 37.25 36.66 35.49 35.13 33.92 33.20 32.52 32.39 32.25 32.25 32.45 32.73 32.31 31.98 32.37 32.91 32.70 32.91 32.70 33.92 34.38 34.54 34.22 34.05 33.78 33.31 33.29 32.99 33.79 33.43 32.88 32.51 32.49 32.28 32.66 32.52
40.22 39.03 37.66 37.15 37.54 35.92 34.37 33.16 32.84 33.14 32.84 32.72 32.33 31.74 31.99 32.01 32.19 32.01 32.37 31.83 31.28 31.01 32.37 32.73 30.73 31.98 33.88 33.44 32.94 34.29 33.65 33.11 32.80 32.70 33.41 33.29 33.62 33.25 32.70 32.70 32.70 32.88 32.69 32.11
35.48 34.62 34.09 33.74 33.29 32.76 31.94 32.57 32.87 32.34 32.48 32.46 32.19 32.01 30.93 30.63 31.46 31.14 31.28 31.57 32.01 32.83 33.76 33.83 33.08 33.89 34.51 34.01 30.77 33.62 34.07 33.52 32.12 31.88 32.50 33.04 33.10 32.55 32.99 32.64 32.49 32.69 32.72 32.88
32.70 33.14 32.30 31.89 31.60 32.07 32.13 32.19 31.78 30.86 31.62 32.13 31.28 30.17 29.53 30.08 28.85 28.22 30.69 32.22 32.20 31.89 32.51 30.65 32.91 33.00 32.88 32.61 32.24 34.15 34.45 33.86 32.62 31.74 32.09 31.90 32.19 32.28 32.25 32.88 32.87 32.72 32.73 32.55
33.16 31.75 31.87 31.74 31.54 31.41 31.98 31.78 31.16 29.91 29.45 29.24 29.06 29.34 29.68 30.59 29.09 29.92 29.44 30.64 31.63 28.87 30.77 32.46 31.82 29.96 30.03 29.24 32.07 32.19 31.81 31.61 31.34 31.63 31.70 31.94 31.83 31.89 31.92 32.37 31.99 32.01 32.19 31.98
33.13 32.67 32.10 30.99 30.33 30.15 30.12 29.56 28.32 28.20 26.07 24.71 23.79 25.40 27.75 28.71 30.21 28.67 27.74 29.87 29.79 27.00 28.91 29.55 28.43 26.53 26.33 29.58 30.92 31.34 30.82 30.45 30.47 31.31 31.66 31.75 31.48 31.48 32.02 32.30 32.14 31.39 31.02 30.52
33.37 32.59 32.12 32.71 32.19 31.15 28.62 29.21 28.89 28.12 25.68 25.75 24.05 23.16 26.72 27.34 27.88 29.19 28.56 27.27 26.83 25.69 27.24 26.87 25.69 25.59 25.45 27.37 28.54 29.96 30.19 31.09 30.21 30.74 30.05 30.18 30.69 31.64 31.51 31.37 29.75 28.72 27.99 27.02
32.05 31.85 32.21 31.67 30.91 29.70 29.75 29.65 29.91 29.93 28.62 28.85 27.76 27.44 26.54 27.25 25.80 25.66 26.58 26.45 25.24 25.09 25.83 26.44 24.30 24.85 27.08 28.61 28.83 29.84 29.03 27.99 28.36 29.82 29.11 28.78 28.36 27.61 27.24 27.24 26.52 25.15 24.04 23.34
32.49 31.97 31.69 31.45 30.94 30.82 30.23 29.77 28.65 27.53 26.99 26.89 26.33 27.16 26.75 26.26 25.48 24.91 24.66 24.63 24.83 24.30 24.59 25.12 25.18 25.47 27.43 26.82 26.33 25.60 25.92 26.28 25.78 25.49 24.47 23.70 23.00 22.29 21.61 21.25 20.72 20.55 20.58 20.80
31.67 30.90 30.45 29.57 29.45 27.86 26.91 26.28 26.53 25.53 24.71 25.10 24.97 25.27 24.53 24.46 23.84 22.85 23.21 23.21 23.62 23.63 23.68 23.69 23.51 24.18 24.16 24.18 23.87 23.32 22.63 21.85 21.77 21.49 20.67 19.61 19.10 18.49 18.16 18.17 18.00 18.19 18.20 18.01
MSLP
1002.55 1002.26 1001.99 1000.96 1000.09 1000.25 1000.01 999.82 999.25 997.91 997.12 997.92 998.01 997.53 997.31 997.30 997.16 997.04 997.09 997.36 997.63 997.98 998.39 998.77 999.06 999.48 1000.16 1000.79 1001.28 1001.89 1002.83 1003.66 1004.56 1005.47 1006.17 1006.88 1007.59 1008.29 1008.83 1009.34 1009.81 1010.10 1010.30 1011.23
1003.11 1003.34 1002.82 1000.86 999.97 1000.15 999.97 999.29 998.06 997.52 994.57 997.44 997.09 996.86 996.54 996.39 996.44 996.14 996.05 996.17 996.43 996.71 997.16 997.56 998.01 998.92 999.66 1000.21 1000.83 1001.43 1002.14 1002.89 1003.84 1004.92 1005.91 1006.69 1007.58 1008.37 1009.03 1009.39 1009.74 1009.63 1010.64 1011.08
1003.30 1004.98 1004.18 1000.70 999.89 999.34 998.32 998.27 998.13 996.40 994.50 997.20 996.72 996.39 995.76 995.78 995.63 995.41 995.39 995.40 995.69 995.98 996.37 996.99 997.66 998.28 998.97 999.72 1000.33 1001.04 1001.83 1002.78 1003.69 1004.63 1005.69 1006.59 1007.41 1008.28 1009.07 1009.47 1009.13 1010.22 1010.48 1011.19
1005.19 1006.48 1004.70 997.19 999.08 998.80 998.09 997.14 997.03 996.03 996.12 996.09 995.49 995.14 995.10 995.11 995.02 994.77 994.86 995.11 995.37 995.79 996.14 996.61 997.32 998.00 998.69 999.42 999.99 1000.68 1001.60 1002.56 1003.45 1004.48 1005.73 1006.86 1007.68 1008.38 1008.74 1008.77 1009.34 1009.86 1010.72 1011.17
1007.35 1006.23 1003.08 998.50 1000.00 999.29 997.82 996.20 996.32 995.64 995.25 994.89 994.68 994.47 994.24 994.44 994.33 994.42 994.47 994.73 995.17 995.89 996.61 997.30 997.86 998.39 999.21 999.90 1000.33 1001.22 1001.95 1002.64 1003.46 1004.63 1005.70 1006.61 1007.31 1008.01 1008.33 1008.54 1009.08 1010.01 1010.40 1010.73
1007.66 1006.32 1002.99 998.35 998.43 997.77 997.92 995.33 996.42 995.82 995.29 995.21 995.09 994.45 994.30 994.33 994.39 994.50 994.56 994.81 995.54 996.42 997.07 997.87 998.47 998.97 999.71 1000.21 1000.70 1001.35 1002.17 1002.82 1003.46 1004.40 1005.59 1006.38 1007.14 1007.63 1008.36 1008.83 1009.30 1009.89 1010.24 1010.41
1005.84 1005.18 1001.06 999.09 999.13 998.51 997.81 996.63 995.69 995.60 995.43 995.42 995.31 995.02 994.76 994.86 995.04 995.42 995.52 995.99 996.83 997.54 997.81 998.41 999.34 999.93 1000.41 1000.84 1001.21 1001.70 1002.21 1002.81 1003.81 1004.69 1005.38 1006.04 1007.01 1007.79 1008.35 1008.89 1009.32 1009.91 1010.23 1010.42
1004.58 1004.25 1000.35 999.42 998.66 998.66 997.11 997.20 996.99 996.92 996.27 995.91 996.00 995.84 995.62 995.43 995.72 996.19 996.59 997.15 997.75 998.09 998.35 998.66 999.52 1000.21 1000.83 1001.88 1002.28 1002.59 1003.04 1003.47 1004.29 1005.16 1005.97 1006.59 1007.33 1007.74 1008.19 1008.76 1009.38 1009.72 1010.24 1010.51
1002.16 999.99 999.87 999.09 998.43 998.20 998.37 998.63 998.78 998.31 997.89 997.52 996.94 996.53 996.75 996.63 996.55 996.85 997.39 997.67 998.24 998.73 998.90 999.33 1000.06 1000.76 1001.27 1002.14 1002.76 1003.26 1003.82 1004.70 1005.52 1006.03 1006.70 1007.21 1007.57 1007.91 1008.43 1008.65 1009.32 1009.53 1010.08 1010.70
1001.09 999.46 999.60 999.62 999.96 1000.66 1000.98 1000.62 1000.77 1000.56 999.58 999.50 999.26 998.40 998.15 998.49 997.87 998.23 998.43 998.61 998.69 999.16 999.59 1000.03 1000.58 1001.43 1002.21 1003.00 1003.64 1004.00 1004.77 1005.49 1006.54 1007.28 1007.92 1008.03 1008.02 1008.22 1008.83 1009.16 1009.37 1009.83 1010.19 1010.55
1000.77 1000.20 1000.66 1000.51 1001.62 1002.11 1001.87 1001.70 1001.76 1001.78 1001.11 1000.99 1001.22 1000.89 999.93 1000.74 1000.16 999.65 999.66 999.62 999.61 999.77 1000.15 1000.49 1001.41 1001.91 1002.59 1003.43 1004.18 1004.47 1004.93 1005.92 1006.70 1007.09 1007.56 1008.03 1008.41 1008.70 1008.77 1009.10 1009.35 1009.63 1010.01 1010.10
1002.03 1002.33 1002.72 1001.73 1001.88 1001.63 1001.69 1002.02 1001.45 1001.34 1001.52 1001.55 1001.19 1001.57 1001.30 1001.27 1001.08 1000.79 1000.60 1000.58 1000.27 1000.44 1000.85 1001.16 1002.48 1003.52 1003.92 1004.68 1004.94 1005.38 1005.64 1006.10 1006.84 1007.38 1007.89 1008.25 1008.45 1008.95 1008.80 1008.92 1009.02 1009.08 1009.54 1010.06
1001.59 1001.45 1001.08 1000.66 1001.08 1001.24 1001.30 1001.29 1001.29 1001.60 1001.48 1000.78 1001.06 1001.66 1001.41 1001.22 1001.11 1000.64 1000.31 1000.37 1000.36 1001.41 1001.82 1002.17 1003.29 1003.97 1004.81 1005.42 1005.83 1005.86 1006.12 1006.57 1006.91 1007.37 1007.88 1008.39 1008.45 1009.30 1009.13 1009.13 1008.95 1009.38 1009.37 1009.73
1001.16 1001.06 1000.55 1000.48 1000.22 1000.65 1000.76 1000.70 1000.68 1000.57 1000.60 1000.62 1000.84 1001.01 1001.25 1001.41 1001.22 1001.35 1001.38 1001.52 1001.82 1002.55 1002.98 1003.64 1004.29 1005.06 1005.51 1005.57 1006.49 1006.59 1006.74 1007.04 1007.33 1007.38 1007.62 1008.21 1008.51 1009.15 1008.87 1008.97 1009.03 1009.24 1009.19 1009.16
1000.61 1000.54 1000.24 1000.17 1000.29 1000.31 1000.37 1000.56 1000.62 1000.41 1000.53 1000.86 1001.35 1001.87 1002.03 1002.23 1002.71 1003.00 1003.14 1003.32 1003.83 1003.89 1004.30 1004.62 1005.31 1005.79 1006.32 1006.52 1006.78 1006.80 1007.02 1007.54 1007.66 1007.57 1007.58 1007.90 1008.17 1008.56 1008.38 1008.53 1008.81 1008.92 1008.60 1008.99
1000.05 1000.08 1000.21 1000.27 1000.26 1000.24 1000.36 1000.50 1000.95 1000.99 1001.26 1002.04 1002.74 1002.92 1002.87 1002.88 1003.56 1004.30 1004.89 1005.11 1005.31 1005.82 1006.61 1006.78 1006.94 1007.29 1007.33 1007.25 1007.20 1007.42 1007.44 1007.47 1007.93 1007.59 1007.71 1007.89 1008.13 1007.98 1007.91 1008.13 1008.30 1008.50 1008.42 1008.28
1000.51 1000.61 1000.77 1000.89 1000.95 1000.86 1000.81 1001.46 1001.63 1001.88 1002.64 1003.34 1003.99 1004.61 1005.02 1005.04 1005.48 1005.90 1006.35 1007.22 1007.16 1007.36 1007.38 1007.57 1007.86 1008.07 1008.12 1008.08 1007.66 1007.53 1007.52 1007.70 1007.96 1007.73 1007.81 1007.92 1008.06 1007.91 1007.83 1007.80 1007.91 1008.15 1008.13 1007.99
1001.43 1001.68 1001.79 1001.79 1001.85 1002.12 1002.70 1003.20 1003.59 1003.98 1004.57 1005.11 1005.58 1006.20 1006.53 1006.56 1007.09 1007.34 1007.63 1007.79 1008.07 1008.04 1007.81 1008.01 1008.40 1008.29 1008.26 1008.27 1008.09 1007.78 1007.80 1007.75 1007.68 1007.74 1007.74 1007.78 1007.93 1007.85 1007.65 1007.65 1007.76 1007.92 1007.96 1007.84
1003.39 1003.72 1004.05 1004.09 1004.21 1004.51 1004.81 1005.06 1005.40 1005.71 1006.22 1006.58 1006.88 1007.31 1007.58 1007.77 1008.10 1008.23 1008.11 1008.52 1008.32 1008.19 1008.22 1008.30 1008.71 1008.30 1008.04 1008.07 1008.12 1007.67 1007.77 1007.89 1007.85 1007.72 1007.67 1007.76 1007.75 1007.68 1007.61 1007.59 1007.52 1007.69 1007.87 1007.83
1005.07 1005.47 1005.56 1005.58 1005.60 1005.82 1006.00 1006.26 1006.35 1006.87 1007.41 1007.58 1007.94 1008.23 1008.23 1008.63 1008.81 1008.70 1008.63 1008.54 1008.49 1008.29 1008.20 1008.19 1008.14 1007.92 1007.59 1007.49 1007.81 1007.65 1007.65 1007.76 1007.75 1007.69 1007.64 1007.67 1007.67 1007.61 1007.46 1007.46 1007.42 1007.62 1007.76 1007.77
1006.07 1006.38 1006.31 1006.62 1006.83 1007.07 1007.48 1007.19 1007.58 1007.93 1008.37 1008.51 1008.72 1008.99 1009.13 1009.16 1009.03 1008.98 1008.69 1008.47 1008.71 1008.61 1008.51 1008.38 1008.29 1008.21 1008.03 1007.96 1007.87 1007.71 1007.73 1007.81 1007.72 1007.75 1007.74 1007.68 1007.61 1007.45 1007.41 1007.26 1007.27 1007.42 1007.53 1007.70
1006.58 1006.95 1007.01 1007.44 1007.52 1008.03 1008.17 1008.28 1008.49 1008.93 1009.30 1009.52 1009.61 1009.57 1009.46 1009.36 1009.27 1009.08 1009.18 1009.24 1009.33 1009.35 1008.98 1008.65 1008.94 1009.01 1008.82 1008.56 1008.07 1007.99 1007.92 1007.77 1007.65 1007.63 1007.63 1007.47 1007.39 1007.38 1007.31 1007.21 1007.15 1007.25 1007.55 1007.79
1006.81 1007.18 1007.57 1007.88 1008.05 1008.37 1008.63 1008.94 1009.24 1009.55 1009.85 1010.14 1010.32 1010.28 1010.00 1009.77 1009.54 1009.43 1009.41 1009.75 1009.67 1009.98 1009.53 1009.35 1009.48 1009.37 1009.19 1008.86 1008.43 1008.13 1007.99 1007.85 1007.69 1007.65 1007.63 1007.57 1007.54 1007.43 1007.25 1007.10 1007.10 1007.45 1007.75 1008.04
1007.06 1007.33 1007.65 1007.93 1008.10 1008.29 1008.73 1009.14 1009.37 1009.70 1010.10 1010.36 1010.52 1010.55 1010.42 1010.22 1010.33 1010.21 1010.19 1010.16 1010.18 1010.26 1009.95 1010.15 1009.89 1009.65 1009.39 1008.91 1008.42 1008.08 1007.93 1007.72 1007.69 1007.71 1007.83 1007.76 1007.64 1007.49 1007.35 1007.33 1007.48 1007.93 1008.32 1008.67
1007.48 1007.69 1007.82 1007.92 1008.15 1008.63 1008.92 1009.20 1009.31 1009.50 1009.82 1010.04 1010.59 1010.90 1011.16 1011.17 1011.24 1011.23 1011.14 1010.99 1010.83 1010.67 1010.43 1010.18 1010.08 1009.77 1009.22 1008.69 1008.26 1008.00 1008.05 1008.23 1008.27 1008.14 1008.24 1008.27 1008.30 1008.39 1008.43 1008.44 1008.64 1009.02 1009.36 1009.70
1007.46 1007.77 1008.17 1008.37 1008.63 1008.91 1009.23 1009.47 1009.66 1010.21 1010.46 1010.77 1011.43 1011.56 1011.73 1011.87 1011.97 1011.90 1011.82 1011.66 1011.47 1011.28 1011.06 1010.85 1010.63 1010.20 1009.52 1009.39 1009.29 1009.23 1009.15 1009.14 1009.23 1009.27 1009.35 1009.47 1009.63 1009.78 1009.96 1010.11 1010.26 1010.43 1010.66 1010.86
1007.95 1008.29 1008.58 1008.88 1009.25 1009.83 1010.17 1010.47 1010.53 1010.90 1011.43 1011.76 1011.89 1012.12 1012.34 1012.52 1012.58 1012.50 1012.41 1012.31 1012.12 1011.93 1011.74 1011.57 1011.43 1010.99 1010.68 1010.52 1010.49 1010.53 1010.60 1010.66 1010.63 1010.63 1010.72 1010.89 1011.05 1011.22 1011.33 1011.44 1011.60 1011.78 1011.91 1012.02
Wind_Speed
19 21 21 25 26 24 26 25 25 18 27 17 14 16 14 13 15 15 13 13 15 16 14 9 8 7 8 7 9 7 9 7 8 7 6 6 6 7 7 7 6 6 5 3
24 21 22 31 29 25 28 31 34 30 37 16 18 17 18 19 20 19 19 16 16 10 9 10 7 6 5 5 7 8 11 11 9 8 9 7 8 7 6 6 6 5 3 1
27 14 20 30 14 27 33 29 24 31 33 17 20 22 21 20 18 15 14 11 7 7 5 4 5 5 5 5 5 7 9 8 7 10 9 9 9 7 7 7 6 4 2 4
16 1 16 22 15 19 22 24 22 28 25 26 29 29 26 22 21 16 14 9 6 4 2 5 3 1 2 1 3 8 8 8 9 10 10 9 8 7 6 5 6 3 3 0
6 10 24 36 20 19 18 21 16 20 20 20 18 18 16 13 15 14 9 7 4 4 3 6 4 2 1 3 3 6 6 8 10 11 9 10 9 7 5 5 5 3 4 3
4 6 22 13 12 19 27 26 22 24 24 23 18 15 10 7 6 8 7 4 6 3 5 3 1 3 4 5 6 8 8 8 11 12 10 9 7 7 5 5 5 3 3 3
16 12 21 7 12 14 15 1 10 15 10 11 10 9 8 7 3 7 10 8 5 4 2 5 4 3 4 4 6 5 5 7 8 7 6 7 7 4 5 5 5 4 3 1
12 11 29 10 14 26 18 17 20 19 18 10 8 10 12 13 2 4 2 3 2 2 3 5 5 4 5 5 3 5 6 8 8 7 5 5 5 4 4 5 4 4 4 4
13 12 9 8 8 10 17 17 16 13 15 15 11 5 9 9 3 2 2 2 3 4 4 5 5 4 9 5 7 7 9 8 9 8 6 4 3 3 2 3 3 3 3 2
10 12 19 15 11 15 14 13 17 17 16 17 16 13 12 12 11 4 2 3 1 3 6 5 5 4 10 8 7 10 9 8 6 5 4 3 2 3 2 0 1 2 3 2
9 11 15 7 12 12 13 11 12 12 11 11 14 14 12 12 12 10 9 7 3 3 5 5 5 9 9 9 7 9 10 8 7 6 5 4 4 3 3 3 2 2 3 3
3 1 8 15 15 15 12 11 7 5 6 4 2 8 9 10 9 9 11 8 8 1 6 9 10 9 9 6 4 7 5 4 4 4 4 2 1 0 2 3 5 6 6 4
8 10 11 14 13 13 12 13 9 9 10 8 7 8 10 9 7 7 7 4 5 6 8 9 11 11 9 6 4 4 5 5 4 4 2 1 0 1 1 3 6 7 8 9
16 15 18 17 14 11 13 13 12 12 12 6 8 8 7 9 6 7 4 5 10 9 9 10 11 8 6 6 6 4 4 4 2 2 2 1 1 2 2 3 3 3 8 9
13 13 16 16 13 15 14 11 14 12 8 6 7 6 6 5 7 9 8 8 7 6 6 7 7 7 6 5 2 1 2 1 3 2 2 1 1 3 3 3 3 3 1 3
13 11 11 12 14 12 13 9 11 9 2 6 6 7 6 9 9 9 11 11 7 7 8 8 6 5 3 2 2 2 1 3 1 0 0 1 2 3 2 3 3 4 3 3
10 9 9 11 11 12 10 7 8 8 9 8 7 7 8 8 9 8 8 6 6 5 4 3 1 2 3 3 4 1 1 1 2 1 1 2 2 2 2 2 2 3 3 3
9 9 10 11 9 9 11 9 9 9 8 9 9 8 7 7 6 5 4 4 3 3 2 2 3 2 1 3 3 2 1 1 1 1 1 1 1 2 1 1 2 3 3 1
12 12 11 12 10 8 7 8 9 9 9 8 8 7 6 6 4 4 4 2 1 3 2 1 3 4 4 5 4 2 0 1 1 2 1 3 2 2 2 2 2 2 2 2
9 9 9 10 10 9 9 8 9 9 7 7 6 5 6 5 3 2 2 2 2 2 2 3 3 5 6 5 4 4 3 2 1 2 2 1 2 3 3 3 2 3 3 2
7 7 9 10 10 10 9 8 8 9 8 7 7 6 5 3 3 3 3 4 4 5 5 4 4 6 6 6 2 3 2 2 1 1 2 3 4 4 4 4 4 3 3 2
7 8 7 7 9 8 7 8 9 8 8 7 6 5 2 0 2 2 3 6 5 8 6 5 5 8 6 8 5 4 4 3 1 1 3 3 3 4 5 3 2 3 3 3
7 8 8 5 7 9 9 9 7 7 7 6 6 6 6 4 6 6 5 7 6 7 6 6 7 7 7 5 5 5 4 5 2 2 3 3 4 4 5 4 4 4 4 3
7 6 6 7 7 7 8 7 7 6 4 5 4 2 7 5 5 6 7 8 9 8 6 6 6 8 8 6 6 5 5 4 1 1 2 4 3 2 3 4 5 6 5 6
6 5 5 4 6 5 5 3 4 5 4 6 8 7 8 6 6 6 7 7 9 7 6 7 8 10 7 5 5 3 5 5 5 4 4 5 6 7 7 7 7 7 7 6
6 4 5 7 5 4 4 4 4 5 5 5 5 4 5 5 5 6 6 7 6 7 6 6 6 8 5 7 8 9 8 6 6 7 7 7 8 7 8 8 7 7 7 6
5 4 5 5 5 6 5 5 5 6 6 5 5 5 6 6 6 6 6 6 6 6 5 5 7 8 7 8 7 7 7 8 10 8 8 8 8 7 7 8 7 7 7 7
Wind_Direction
265 271 276 279 272 270 268 273 268 269 256 252 260 256 254 249 255 257 256 248 229 215 231 213 211 188 206 215 204 183 190 184 178 158 170 161 166 131 129 143 159 140 122 209
267 267 272 276 268 270 265 265 267 276 270 273 272 278 273 274 278 270 264 248 257 242 243 240 209 182 204 200 192 181 190 196 168 163 173 168 133 136 147 157 155 118 158 159
264 275 292 274 274 251 257 258 262 259 270 272 270 267 267 272 269 275 281 260 248 257 244 193 158 165 182 207 207 194 182 168 166 167 175 135 140 145 169 178 121 163 161 217
267 340 243 258 270 262 260 255 253 264 271 262 262 263 269 267 271 268 270 275 270 245 149 128 127 153 129 306 243 144 162 177 180 141 148 144 156 175 181 137 154 137 127 109
227 229 277 268 282 290 282 272 267 267 267 266 270 280 274 270 270 269 255 255 94 52 41 39 36 55 147 227 219 135 171 183 151 151 156 165 172 171 160 136 111 167 190 186
151 224 249 298 258 239 245 267 261 259 267 273 281 273 279 283 342 334 296 65 74 72 96 81 91 131 171 200 174 181 186 180 152 160 170 168 159 148 137 143 166 131 128 112
224 239 263 256 270 311 263 344 342 339 338 354 323 300 338 348 4 21 15 77 64 30 111 145 151 159 187 183 178 153 149 140 147 144 133 127 132 133 136 138 131 161 172 94
215 222 255 216 241 232 262 289 291 299 305 312 289 295 311 310 33 113 84 71 13 216 187 120 139 160 136 89 121 125 112 105 100 98 102 96 122 134 137 129 165 189 183 213
200 218 251 301 302 300 345 350 337 344 350 349 333 314 316 335 115 1 258 222 173 241 117 94 132 165 117 108 81 90 86 78 87 83 74 66 81 87 109 157 198 209 150 176
232 252 263 286 356 11 5 356 349 341 358 358 350 354 355 352 358 345 301 299 229 267 128 155 151 144 122 123 121 101 99 95 97 119 152 144 112 99 85 140 243 164 150 170
280 302 335 335 3 342 340 350 338 341 6 4 355 346 6 337 342 342 344 330 323 236 146 140 96 106 112 120 146 142 138 152 166 170 164 172 171 177 178 216 176 179 196 171
273 232 253 261 266 279 289 281 300 330 328 306 347 320 324 318 311 306 304 267 256 307 161 119 102 95 81 58 85 105 106 109 72 66 61 52 109 213 209 211 225 211 158 149
298 289 250 261 284 291 278 275 252 247 240 250 238 241 254 263 282 280 246 188 119 83 99 113 123 117 102 87 88 76 91 99 113 125 161 224 217 201 228 268 239 218 195 206
294 299 287 286 287 277 282 308 295 267 280 336 319 316 342 313 294 282 49 78 92 92 97 93 95 95 98 111 105 116 102 83 104 142 150 138 147 260 217 214 219 214 220 214
278 264 271 287 271 285 290 299 298 302 311 358 42 11 344 356 45 49 64 71 94 101 113 125 115 111 88 48 41 153 163 141 168 170 163 121 228 229 217 208 230 235 149 182
290 287 292 286 294 304 296 296 307 301 25 76 47 31 23 81 94 70 50 30 67 71 54 46 48 34 59 38 275 260 186 124 169 313 181 186 241 229 201 207 225 225 216 191
328 329 319 293 286 298 318 322 341 45 83 87 80 59 62 72 72 64 65 53 58 66 71 76 40 12 7 324 322 358 74 82 203 305 252 197 259 259 232 200 211 227 237 223
334 316 340 349 359 25 55 54 65 72 75 72 71 65 57 60 67 74 81 93 92 63 56 145 197 177 235 297 315 344 334 352 349 296 289 263 249 267 239 212 219 233 235 201
25 35 36 40 41 53 63 69 73 76 70 68 75 71 65 60 58 52 55 83 239 241 114 140 205 235 222 205 245 267 360 348 294 288 347 319 273 262 262 230 215 210 208 174
47 54 58 61 56 64 74 61 71 70 66 76 80 80 70 61 59 55 358 282 38 74 225 129 254 252 243 190 199 266 185 213 309 313 303 283 281 297 277 245 228 205 188 182
75 76 77 75 70 63 59 64 74 72 57 56 67 66 71 50 15 335 295 35 56 15 1 298 326 358 48 28 238 282 49 295 351 339 311 314 314 304 283 252 222 199 163 142
104 96 88 90 83 81 77 80 75 79 77 71 59 38 359 114 251 268 35 16 68 16 347 12 33 15 3 343 341 351 327 305 274 301 296 296 292 293 282 246 187 140 129 111
115 106 103 99 93 88 84 79 70 70 70 61 47 21 6 349 16 358 8 31 35 13 344 345 5 354 348 321 310 306 300 295 285 314 313 309 298 288 273 241 156 132 124 112
113 114 109 118 138 116 97 106 102 101 122 132 106 26 16 14 1 18 5 357 9 358 343 22 352 341 328 305 296 292 281 269 302 3 336 318 284 345 47 68 83 82 80 81
101 114 97 116 99 94 95 94 146 70 24 45 61 48 36 13 12 360 9 357 358 355 339 357 360 338 308 299 310 358 52 43 22 33 42 39 42 43 45 49 61 68 68 65
149 100 72 61 64 59 47 27 36 70 13 47 78 40 44 29 19 4 2 6 4 3 12 7 358 339 18 30 35 35 36 41 47 45 51 51 51 52 51 54 56 60 63 65
90 115 131 103 75 69 41 42 35 43 42 11 42 45 39 29 20 11 18 13 14 15 19 24 15 19 28 38 44 52 53 49 43 50 52 54 53 54 55 58 60 61 62 64